TimeEST,TemperatureF,Dew PointF,Humidity,Sea Level PressureIn,VisibilityMPH,Wind Direction,Wind SpeedMPH,Gust SpeedMPH,PrecipitationIn,Events,Conditions,WindDirDegrees,DateUTC
12:53 AM,48.9,42.1,77,30.06,10.0,WNW,4.6,-,N/A,,Mostly Cloudy,290,2013-02-12 05:53:00
1:53 AM,48.0,42.1,80,30.07,10.0,West,5.8,-,N/A,,Scattered Clouds,260,2013-02-12 06:53:00
2:53 AM,46.9,39.9,77,30.06,10.0,West,6.9,-,N/A,,Clear,270,2013-02-12 07:53:00
3:53 AM,46.0,39.9,79,30.07,10.0,WSW,8.1,-,N/A,,Clear,250,2013-02-12 08:53:00
4:53 AM,46.0,39.0,76,30.06,10.0,WSW,4.6,-,N/A,,Mostly Cloudy,250,2013-02-12 09:53:00
5:53 AM,45.0,37.9,76,30.07,10.0,West,6.9,-,N/A,,Clear,270,2013-02-12 10:53:00
6:53 AM,45.0,36.0,71,30.09,10.0,WNW,6.9,-,N/A,,Clear,290,2013-02-12 11:53:00
7:53 AM,45.0,34.0,65,30.11,10.0,West,6.9,-,N/A,,Clear,270,2013-02-12 12:53:00
8:53 AM,45.0,34.0,65,30.09,10.0,WNW,4.6,-,N/A,,Partly Cloudy,300,2013-02-12 13:53:00
9:53 AM,48.9,28.9,46,30.09,10.0,North,3.5,-,N/A,,Overcast,360,2013-02-12 14:53:00
10:53 AM,54.0,28.0,37,30.08,10.0,WNW,3.5,-,N/A,,Clear,300,2013-02-12 15:53:00
11:49 AM,55.4,26.6,33,30.09,10.0,WSW,16.1,160.0,N/A,,Clear,250,2013-02-12 16:49:00
11:53 AM,55.0,27.0,34,30.08,10.0,North,-9999.0,-,N/A,,Clear,0,2013-02-12 16:53:00
12:53 PM,55.0,28.9,37,30.04,10.0,Calm,Calm,-,N/A,,Clear,0,2013-02-12 17:53:00
1:53 PM,55.0,32.0,42,30.02,10.0,WNW,3.5,-,N/A,,Clear,290,2013-02-12 18:53:00
2:53 PM,54.0,34.0,47,30.02,10.0,SW,3.5,-,N/A,,Overcast,230,2013-02-12 19:53:00
3:53 PM,53.1,33.1,47,30.00,10.0,Calm,Calm,-,0.00,Rain,Light Rain,0,2013-02-12 20:53:00
4:53 PM,51.1,37.0,59,29.94,10.0,NE,3.5,-,0.00,,Overcast,40,2013-02-12 21:53:00
5:53 PM,51.1,37.0,59,29.96,10.0,SSE,3.5,-,0.00,Rain,Light Rain,160,2013-02-12 22:53:00
6:53 PM,48.0,42.1,80,29.95,10.0,ESE,5.8,-,0.03,Rain,Light Rain,110,2013-02-12 23:53:00
7:53 PM,46.9,42.1,83,29.94,10.0,East,8.1,-,0.02,,Mostly Cloudy,90,2013-02-13 00:53:00
8:53 PM,46.0,43.0,89,29.95,10.0,East,5.8,-,0.00,Rain,Light Rain,90,2013-02-13 01:53:00
9:53 PM,45.0,41.0,86,29.92,9.0,East,9.2,-,0.05,Rain,Light Rain,100,2013-02-13 02:53:00
10:53 PM,44.1,39.9,85,29.90,10.0,East,13.8,20.7,0.00,,Overcast,80,2013-02-13 03:53:00
11:18 PM,44.6,39.2,81,29.88,10.0,East,11.5,-,N/A,,Mostly Cloudy,80,2013-02-13 04:18:00
11:27 PM,44.6,39.2,81,29.88,10.0,ENE,10.4,18.4,N/A,,Overcast,70,2013-02-13 04:27:00
11:53 PM,43.0,39.0,86,29.88,10.0,East,8.1,-,N/A,,Overcast,100,2013-02-13 04:53:00